Location: Corte Bragagnani
(45.3000°N, 11.1000°E)
Time: 09:18:38
(UTC+00:00)

MetOp-A - Pass Details

Date: 09 April 2020
Orbit: 819 x 821 km, 98.5° (Epoch: 24 May)

Event Time Altitude Azimuth Distance (km) Brightness Sun altitude
Exits shadow 19:13:31 10° 159° (SSE) 2,382 6.1 -13.9°
Maximum altitude 19:18:47 78° 74° (ENE) 844 4.1 -14.7°
Drops below altitude 10° 19:24:09 10° 349° (NNW) 2,428 7.2 -15.6°
Sets 19:26:31 0° 348° (NNW) 3,365 8.0 -15.9°
